Погода в Оленеке

Погода в Оленеке : погода сейчас, прогноз погоды и архив. Всё, что Вы хотите узнать о погоде в Оленеке!

Хотите узнать прогноз погоды в Оленеке? Тогда Вам сюда: Погода в Оленеке

Поиск расширенной информации на нашем сайте:

Другие новости

Новости СМИ2

Главная страница сайта

Новости сайта

03.07.2017

Напоминаем, что на нашем специализированном сайте Метеоцентр.Азия вы можете получить высокодетализированные автоматические прогнозы погоды по пунктам России, СНГ и мира в авиационном формате (включающие направление и скорость ветра, видимость, явления погоды, количество и форму облачности, нижнюю и верхнюю границу облачности).


Погода в Оленеке - сегодня

Время (UTC), дата Ветер
(°,м/с) 
Видим.   Явления Облачность Т
(°С)
Тd
(°С)
f(%) Тe
(°С)
Pmin
(гПа)
dP
(гПа)
Po
(мм)
O2
(г/м3)
Тmin Tmax R s Состояние
почвы
18 21.05.18 090 (В) н/о    н/о 
+3.7 -6 49 +3  1006.5  -1.8  735  293           
21 21.05.18 тихо ()   н/о    н/о 
+4 -5.1 51 +4  1004.7  -1.6  734  292           
00 22.05.18 200 (Ю) 20000 м    10/0 средняя, верхняя 
[Ac trans|Ci fib]
+6.7 -4.6 44 +7  1003.8  -0.7  733  289  +2.6      33  равномерный
мокрый или
старый снег
100% 
03 22.05.18 190 (Ю) 20000 м    10/0 средняя, верхняя 
[Ac trans|Ci fib]
+10.4 -5.7 32 +10  1001.9  -1.5  732  285           
06 22.05.18 190 (Ю) 20000 м    8/0 средняя, верхняя 
[Ac trans|Ci fib]
+11.6 -5.7 29 +11  1000.8  -0.9  731  283           
09 22.05.18 190 (Ю) 20000 м    4/0 верхняя 
[Ci sp]
+12.4 -6 27 +12  1000.3  -0.5  731  282           
12 22.05.18 140 (ЮВ) н/о    н/о 
+10.4 -6 31 +10  1000.8  0.4  731  284    +12.7       
15 22.05.18 110 (В) н/о    н/о 
+8.2 -7.9 31 +8  1001  731  287           
18 22.05.18 090 (В) н/о    н/о 
+5.7 -6.8 40 +5  1001.4  0.1  731  289           
21 22.05.18 100 (В) н/о    н/о 
+5.3 -6.8 41 +5  1001.2  -0.2  731  290           
00 23.05.18 080 (В) 20000 м    10/0 средняя 
[As op]
+6.4 -5.9 41 +5  1000.9  -0.2  731  288  +4.9      24  мокрый или
старый снег
50-90% 
03 23.05.18 080 (В) 20000 м    10/0 средняя 
[As op]
+7.5 -6.3 37 +6  1000.4  -0.4  731  287           
12 23.05.18 070 (В) 6{11}  н/о    н/о 
+5.1 -0.8 66 +3  998.5  -0.4  729  288    +8.1       
15 23.05.18 070 (В) н/о    н/о 
+5.7 -2.9 54 +4  998.7  0.3  729  288           
18 23.05.18 110 (В) н/о    н/о 
+5.7 -3.9 50 +5  999  0.2  729  288           
21 23.05.18 100 (В) н/о    н/о 
+5.7 -3.6 51 +7  999.8  0.8  730  288           
00 24.05.18 100 (В) 20000 м    6/0 средняя 
[Ac trans]
+9 -2.2 45 +9  999.6  0.2  730  285  +4.6      15  мокрый или
старый снег
50-90% 
03 24.05.18 060 (СВ) 20000 м    8/3 1000 м средняя 
[Sc|Ac trans]
+11.3 -0.9 43 +12  998  -1.4  729  282           
06 24.05.18 110 (В) 7{10}  20000 м    5/5 1000 м 
[Sc]
+14.3 -0.9 35 +13  996.3  -1.4  728  279           
09 24.05.18 180 (Ю) 6{10}  20000 м    6/0 средняя 
[Ac As]
+15.9 +2.3 40 +15  997.2  729  277           
12 24.05.18 220 (ЮЗ) н/о    н/о 
+14.7 -1 34 +15  998.7  1.3  730  279    +16       
15 24.05.18 060 (СВ) н/о    н/о 
+11.9 -1 41 +12  998.7  -0.2  730  282           
18 24.05.18 290 (З) н/о    н/о 
+8 -0.1 57 +8  999.6  0.5  730  286           
21 24.05.18 210 (ЮЗ) н/о    н/о 
+7.7 +0.1 59 +9  1000.2  0.5  730  286           
00 25.05.18 220 (ЮЗ) 20000 м    8/1 1000 м средняя, верхняя 
[Cu hum|Ac trans|Ci fib]
+8.6 +0.6 57 +7  1001.2  1.1  731  285  +6.5      мокрый или
старый снег
50-90% 
Время (UTC), дата Ветер
(°,м/с) 
Видим.   Явления Облачность Т
(°С)
Тd
(°С)
f(%) Тe
(°С)
Pmin
(гПа)
dP
(гПа)
Po
(мм)
O2
(г/м3)
Тmin Tmax R s Состояние
почвы

Для получения пояснительной информации подведите курсор к названию столбца.

ПОГОДА в Оленеке - архив

Всё, что Вы хотите узнать о погоде в Оленеке - удобно и подробно!

Выберите нужную дату (начиная с 1 января 2015* года) и нажмите кнопку "Найти".
Будут отображены архивные сводки погоды по пункту Оленек, начиная с указанной даты.


Отображать данные в формате CSV (для использования в таблицах Excel)


Внимание! Наш архив погоды предназначен исключительно для личного некоммерческого использования в познавательных целях. Если Вам необходимы официальные справки о состоянии погоды (для производственных, юридических, коммерческих и т.п. целей), обращайтесь в органы Росгидромета.

*Примечание: данная дата относится к архиву по метеостанциям СССР (Россия, СНГ, Балтия).
Архив по метеостанциям Зарубежной Европы и Азии (кроме Китая) хранится 10 дней, по другим регионам земного шара (Китай, Африка, Америка, Австралия, Океания) - 1 день.

Оленек - район местоположения метеостанции


Название, широта, долгота, высота метеостанции:
Оленек 68.5°ш. 112.4°д. 220 м над ур. моря [Российская Федерация]

Дополнительная информация

В oтличие oт бoльшинства пoгoдных сайтoв мы публикуем пoдрoбную метеoинфoрмацию в детальнoм прoфессиoнальнoм фoрмате.

Характеристики температуры и влажнoсти вoздуха измеряются на высoте 2 м в тени вдали oт зданий и деревьев.
Скoрoсть ветра измеряется на высoте 10 м (на урoвне рoста челoвека скoрoсть ветра ниже в 1.5-2 раза). Если метеoстанция нахoдится в гoрoде или в лесу, тo скoрoсть ветра занижена на 2-4 м/с пo сравнению с oткрытым местoм. Скoрoсть ветра над акватoриями крупных рек и oзёр, а также на вершинах хoлмoв на 2-5 м/с выше, чем в oбычных услoвиях.
Атмoсфернoе давление в разных тoчках местнoсти мoжет значительнo oтличаться oт давления на метеoстанции, в зависимoсти oт услoвий рельефа (при пoдъёме на 10 м давление пoнижается примернo на 1 мм рт.ст.).